Location: Marcé
(47.5801°N, 0.3280°W)
Time: 23:31:37
(UTC+01:00)

Transit 2A - Pass Details

Date: 02 December 2021
Orbit: 591 x 967 km, 66.7° (Epoch: 23 January)

Event Time Altitude Azimuth Distance (km) Brightness Sun altitude
Rises 11:11:04 0° 319° (NW) 3,663 8.9 16.9°
Reaches altitude 10° 11:13:54 10° 310° (NW) 2,712 8.4 17.1°
Maximum altitude 11:19:27 32° 250° (WSW) 1,569 7.8 17.4°
Drops below altitude 10° 11:24:46 10° 190° (S) 2,601 9.9 17.8°
Sets 11:27:27 0° 180° (S) 3,491 10.7 17.9°
